When you browse on this site, cookies collect data to enhance your experience and personalize the content and advertising you see.
Visit our Privacy Policy to learn more. By continuing to use the site, you agree to this use of cookies and data.
  • In Schweiz
  • Länderverzeichnis
  • Für 7 Tage
  • Wassertemperatur
  • Wetterkarte
  • Widgets
  • user-avatar
    Anmelden

    Stündliche Wetter Olimpiya

    Heute, 6 Dezember, Freitag

    Zeit Temperatur Niederschläge Wind Luftdruck Luftfeuchtigkeit
    00:00 +8°C° 0 mm 1 m/S 756 mmHg 93%
    01:00 +8°C° 0 mm 1 m/S 755 mmHg 93%
    02:00 +8°C° 0 mm 1 m/S 755 mmHg 92%
    03:00 +7°C° 0 mm 1 m/S 755 mmHg 92%
    04:00 +6°C° 0 mm 0 m/S 755 mmHg 91%
    05:00 +6°C° 0 mm 0 m/S 755 mmHg 92%
    06:00 +6°C° 0 mm 0 m/S 755 mmHg 92%
    07:00 +5°C° 0 mm 0 m/S 755 mmHg 93%
    08:00 +6°C° 0 mm 0 m/S 755 mmHg 90%
    09:00 +7°C° 0 mm 0 m/S 754 mmHg 87%
    10:00 +8°C° 0 mm 0 m/S 754 mmHg 84%
    11:00 +9°C° 0 mm 0 m/S 754 mmHg 81%
    12:00 +11°C° 0 mm 1 m/S 754 mmHg 77%
    13:00 +11°C° 0 mm 1 m/S 753 mmHg 74%
    14:00 +11°C° 0.3 mm 1 m/S 753 mmHg 79%
    15:00 +10°C° 0.3 mm 1 m/S 753 mmHg 84%
    16:00 +9°C° 0.3 mm 1 m/S 753 mmHg 90%
    17:00 +9°C° 0.7 mm 1 m/S 753 mmHg 92%
    18:00 +9°C° 0.7 mm 1 m/S 753 mmHg 94%
    19:00 +9°C° 0.7 mm 1 m/S 753 mmHg 96%
    20:00 +9°C° 1 mm 1 m/S 752 mmHg 96%
    21:00 +8°C° 1 mm 0 m/S 752 mmHg 97%
    22:00 +8°C° 1 mm 0 m/S 752 mmHg 98%
    23:00 +8°C° 1.5 mm 0 m/S 751 mmHg 98%

    Morgen, 7 Dezember, Samstag

    Zeit Temperatur Niederschläge Wind Luftdruck Luftfeuchtigkeit
    00:00 +8°C° 1.5 mm 0 m/S 751 mmHg 98%
    01:00 +9°C° 1.5 mm 1 m/S 750 mmHg 99%
    02:00 +8°C° 1.9 mm 0 m/S 750 mmHg 98%
    03:00 +8°C° 1.9 mm 0 m/S 750 mmHg 98%
    04:00 +8°C° 1.9 mm 0 m/S 750 mmHg 98%
    05:00 +8°C° 0.5 mm 0 m/S 749 mmHg 98%
    06:00 +8°C° 0.5 mm 0 m/S 749 mmHg 97%
    07:00 +7°C° 0.5 mm 0 m/S 749 mmHg 97%
    08:00 +8°C° 0.7 mm 0 m/S 749 mmHg 97%
    09:00 +8°C° 0.7 mm 0 m/S 750 mmHg 97%
    10:00 +9°C° 0.7 mm 1 m/S 750 mmHg 97%
    11:00 +9°C° 0.6 mm 1 m/S 750 mmHg 96%
    12:00 +10°C° 0.6 mm 1 m/S 750 mmHg 96%
    13:00 +10°C° 0.6 mm 1 m/S 750 mmHg 96%
    14:00 +10°C° 0.4 mm 1 m/S 750 mmHg 96%
    15:00 +10°C° 0.4 mm 1 m/S 750 mmHg 97%
    16:00 +9°C° 0.4 mm 1 m/S 750 mmHg 97%
    17:00 +9°C° 0.3 mm 1 m/S 750 mmHg 97%
    18:00 +9°C° 0.3 mm 1 m/S 751 mmHg 97%
    19:00 +8°C° 0.3 mm 0 m/S 751 mmHg 97%
    20:00 +8°C° 0.8 mm 0 m/S 751 mmHg 97%
    21:00 +8°C° 0.8 mm 0 m/S 752 mmHg 97%
    22:00 +8°C° 0.8 mm 0 m/S 752 mmHg 98%
    23:00 +8°C° 0.4 mm 0 m/S 753 mmHg 98%

    übermorgen, 8 Dezember, Sonntag

    Zeit Temperatur Niederschläge Wind Luftdruck Luftfeuchtigkeit
    00:00 +8°C° 0.4 mm 0 m/S 753 mmHg 98%
    01:00 +8°C° 0.4 mm 0 m/S 753 mmHg 98%
    02:00 +8°C° 0.1 mm 0 m/S 754 mmHg 98%
    03:00 +8°C° 0.1 mm 0 m/S 755 mmHg 98%
    04:00 +8°C° 0.1 mm 0 m/S 755 mmHg 98%
    05:00 +8°C° 0 mm 0 m/S 755 mmHg 98%
    06:00 +8°C° 0 mm 0 m/S 756 mmHg 98%
    07:00 +8°C° 0 mm 0 m/S 756 mmHg 98%
    08:00 +8°C° 0 mm 0 m/S 757 mmHg 97%
    09:00 +8°C° 0 mm 0 m/S 758 mmHg 97%
    10:00 +8°C° 0 mm 0 m/S 758 mmHg 96%
    11:00 +9°C° 0 mm 0 m/S 758 mmHg 93%
    12:00 +10°C° 0 mm 0 m/S 759 mmHg 90%
    13:00 +10°C° 0 mm 0 m/S 759 mmHg 87%
    14:00 +10°C° 0 mm 0 m/S 759 mmHg 89%
    15:00 +9°C° 0 mm 0 m/S 759 mmHg 90%
    16:00 +9°C° 0 mm 0 m/S 759 mmHg 92%
    17:00 +8°C° 0 mm 0 m/S 760 mmHg 93%
    18:00 +8°C° 0 mm 0 m/S 760 mmHg 94%
    19:00 +7°C° 0 mm 0 m/S 761 mmHg 94%
    20:00 +7°C° 0 mm 0 m/S 761 mmHg 95%
    21:00 +6°C° 0 mm 0 m/S 762 mmHg 95%
    22:00 +6°C° 0 mm 0 m/S 762 mmHg 96%
    23:00 +6°C° 0 mm 0 m/S 762 mmHg 96%

    9 Dezember, Montag

    Zeit Temperatur Niederschläge Wind Luftdruck Luftfeuchtigkeit
    00:00 +5°C° 0 mm 0 m/S 762 mmHg 96%
    01:00 +5°C° 0 mm 0 m/S 762 mmHg 96%
    02:00 +5°C° 0 mm 0 m/S 762 mmHg 96%
    03:00 +5°C° 0 mm 0 m/S 763 mmHg 97%
    04:00 +4°C° 0 mm 0 m/S 763 mmHg 97%
    05:00 +4°C° 0 mm 0 m/S 763 mmHg 97%
    06:00 +4°C° 0 mm 0 m/S 763 mmHg 97%
    07:00 +4°C° 0 mm 0 m/S 763 mmHg 97%
    08:00 +5°C° 0 mm 0 m/S 763 mmHg 95%
    09:00 +6°C° 0 mm 0 m/S 763 mmHg 92%
    10:00 +7°C° 0 mm 0 m/S 762 mmHg 90%
    11:00 +7°C° 0 mm 0 m/S 762 mmHg 87%
    12:00 +8°C° 0 mm 0 m/S 762 mmHg 84%
    13:00 +10°C° 0 mm 1 m/S 762 mmHg 81%
    14:00 +9°C° 0 mm 1 m/S 762 mmHg 85%
    15:00 +8°C° 0 mm 0 m/S 762 mmHg 89%
    16:00 +7°C° 0 mm 0 m/S 762 mmHg 93%
    17:00 +6°C° 0 mm 0 m/S 762 mmHg 94%
    18:00 +5°C° 0 mm 0 m/S 762 mmHg 95%
    19:00 +6°C° 0 mm 1 m/S 762 mmHg 95%
    20:00 +4°C° 0 mm 0 m/S 762 mmHg 96%
    21:00 +4°C° 0 mm 0 m/S 762 mmHg 96%
    22:00 +4°C° 0 mm 0 m/S 762 mmHg 96%
    23:00 +4°C° 0 mm 0 m/S 762 mmHg 96%

    10 Dezember, Dienstag

    Zeit Temperatur Niederschläge Wind Luftdruck Luftfeuchtigkeit
    00:00 +3°C° 0 mm 0 m/S 762 mmHg 96%
    01:00 +3°C° 0 mm 0 m/S 762 mmHg 96%
    02:00 +3°C° 0 mm 0 m/S 762 mmHg 96%
    03:00 +3°C° 0 mm 0 m/S 762 mmHg 96%
    04:00 +3°C° 0 mm 0 m/S 761 mmHg 96%
    05:00 +2°C° 0 mm 0 m/S 761 mmHg 95%
    06:00 +2°C° 0 mm 0 m/S 761 mmHg 95%
    07:00 +2°C° 0 mm 0 m/S 761 mmHg 95%
    08:00 +3°C° 0 mm 0 m/S 762 mmHg 92%
    09:00 +4°C° 0 mm 0 m/S 762 mmHg 89%
    10:00 +5°C° 0 mm 0 m/S 762 mmHg 86%
    11:00 +6°C° 0 mm 0 m/S 762 mmHg 83%
    12:00 +7°C° 0 mm 0 m/S 761 mmHg 79%
    13:00 +8°C° 0 mm 0 m/S 761 mmHg 76%
    14:00 +8°C° 0 mm 0 m/S 761 mmHg 81%
    15:00 +7°C° 0 mm 0 m/S 761 mmHg 85%
    16:00 +6°C° 0 mm 0 m/S 760 mmHg 90%
    17:00 +6°C° 0 mm 0 m/S 761 mmHg 89%
    18:00 +6°C° 0 mm 0 m/S 761 mmHg 89%
    19:00 +6°C° 0 mm 0 m/S 761 mmHg 88%
    20:00 +6°C° 0.5 mm 0 m/S 761 mmHg 91%
    21:00 +6°C° 0.5 mm 0 m/S 761 mmHg 93%
    22:00 +6°C° 0.5 mm 0 m/S 761 mmHg 95%
    23:00 +7°C° 0.3 mm 1 m/S 761 mmHg 95%

    11 Dezember, Mittwoch

    Zeit Temperatur Niederschläge Wind Luftdruck Luftfeuchtigkeit
    00:00 +7°C° 0.3 mm 1 m/S 761 mmHg 95%
    01:00 +7°C° 0.3 mm 1 m/S 761 mmHg 95%
    02:00 +7°C° 0 mm 1 m/S 761 mmHg 95%
    03:00 +7°C° 0 mm 1 m/S 761 mmHg 94%
    04:00 +7°C° 0 mm 1 m/S 761 mmHg 94%
    05:00 +8°C° 0 mm 1 m/S 761 mmHg 94%
    06:00 +8°C° 0 mm 1 m/S 761 mmHg 93%
    07:00 +8°C° 0 mm 1 m/S 761 mmHg 93%
    08:00 +8°C° 0 mm 1 m/S 762 mmHg 92%
    09:00 +9°C° 0 mm 1 m/S 762 mmHg 91%
    10:00 +9°C° 0 mm 1 m/S 762 mmHg 90%
    11:00 +10°C° 0 mm 1 m/S 762 mmHg 86%
    12:00 +11°C° 0 mm 1 m/S 762 mmHg 83%
    13:00 +12°C° 0 mm 2 m/S 762 mmHg 79%
    14:00 +11°C° 0 mm 1 m/S 762 mmHg 83%
    15:00 +10°C° 0 mm 1 m/S 761 mmHg 87%
    16:00 +9°C° 0 mm 1 m/S 761 mmHg 91%
    17:00 +8°C° 0 mm 0 m/S 761 mmHg 92%
    18:00 +7°C° 0 mm 0 m/S 762 mmHg 93%
    19:00 +6°C° 0 mm 0 m/S 762 mmHg 94%
    20:00 +6°C° 0 mm 0 m/S 762 mmHg 94%
    21:00 +6°C° 0 mm 0 m/S 762 mmHg 94%
    22:00 +7°C° 0 mm 1 m/S 762 mmHg 94%
    23:00 +7°C° 0 mm 1 m/S 761 mmHg 92%
    Mehr zeigen